Regional Weather Roundup
Issued by NWS Sioux Falls, SD

Home | Current Version | Previous Version | Text Only | Print | Product List | Glossary Off
Versions: 1 2 3 4 5 6 7 8 9 10 11 12 13 14 15 16 17 18 19 20 21 22 23 24 25 26 27 28 29 30 31 32 33 34 35 36 37 38 39 40 41 42 43 44 45 46 47 48 49 50

166
ASUS43 KFSD 141302
RWRFSD

WEATHER ROUNDUP FOR SE SOUTH DAKOTA/SW MINNESOTA/NW IOWA
NATIONAL WEATHER SERVICE SIOUX FALLS SD
700 AM CST THU DEC 14 2017

NOTE: "FAIR" INDICATES FEW OR NO CLOUDS BELOW 12,000 FEET WITH NO
SIGNIFICANT WEATHER AND OR OBSTRUCTIONS TO VISIBILITY.


SDZ038>040-050-052>070-141400-
SOUTHEAST SOUTH DAKOTA

CITY           SKY/WX    TMP DP  RH WIND       PRES   REMARKS
BROOKINGS      CLOUDY    27  25  92 CALM      29.98R
CHAMBERLAIN    LGT SNOW  32  30  92 W5        30.02R WCI  27
HURON          CLOUDY    29  25  85 W8        30.01R WCI  21
MADISON        CLOUDY    27  27 100 CALM      29.98R
MITCHELL       MOCLDY    28  24  85 NW7       30.02R WCI  21
SIOUX FALLS    CLOUDY    28  27  96 E5        30.00R WCI  23
WINNER         LGT RAIN  37  34  89 NW16      30.02R
YANKTON        PTCLDY    32  26  78 W6        30.02R WCI  26
$$

MNZ071-072-080-081-089-090-097-098-141400-
SOUTHWEST MINNESOTA

CITY           SKY/WX    TMP DP  RH WIND       PRES   REMARKS
FAIRMONT       CLOUDY    19  14  81 CALM      30.03R
JACKSON        CLOUDY    21  18  86 MISG      30.00S
LUVERNE        CLOUDY    27  23  86 CALM      30.00S FOG
MARSHALL       CLOUDY    21  18  88 CALM      30.02S
MONTEVIDEO     CLOUDY    21  18  86 N5        30.02S WCI  15
PIPESTONE      CLOUDY    25  23  93 CALM      29.98R
REDWOOD FALLS  CLOUDY    21  15  78 NW7       30.02R WCI  12
WINDOM           N/A     21  10  63 NW12      30.00S WCI   9
WORTHINGTON    CLOUDY    21  18  88 CALM      30.00S
$$

IAZ001>003-012>014-020>022-031-032-NEZ013-014-SDZ071-141400-
NORTHWEST IOWA

CITY           SKY/WX    TMP DP  RH WIND       PRES   REMARKS
CHEROKEE       CLOUDY    25  21  86 CALM      30.04R
DENISON        CLOUDY    27  21  80 N6        30.05R WCI  20
ESTHERVILLE    CLOUDY    21  15  78 CALM      30.01R
LE MARS        CLOUDY    28  25  86 SE3       30.03R
ORANGE CITY    CLOUDY    27  25  93 CALM      30.02R
SHELDON        CLOUDY    23  21  93 CALM      30.00R
SIOUX CITY     CLOUDY    29  24  82 SE6       30.03R WCI  23
SPENCER        CLOUDY    23  18  81 N6        30.03R WCI  16
STORM LAKE     CLOUDY    23  19  86 N3        30.02R
$$

ABBREVIATIONS USED IN REMARKS
   TC - TEMPERATURE IN CELSIUS
  WCI - WIND CHILL INDEX
   HX - HEAT INDEX
  VSB - VISIBILITY





USA.gov is the U.S. government's official web portal to all federal, state and local government web resources and services.